Location: Newark
(34.6283°N, 36.0776°E)
Time: 13:19:28
(UTC+00:00)

deb Explorer IX - Visible Passes

Search period start: 17 September 2019 00:00
Search period end: 27 September 2019 00:00
Orbit: 544 x 1107 km, 38.8° (Epoch: 15 September)

Date Brightness Start Highest point End Pass type
(mag) Time Alt. Az. Time Alt. Az. Time Alt. Az.
17 Sep ? 01:47:20 36° WNW 01:48:42 51° N 01:52:45 10° ENE visible
18 Sep ? 01:26:35 50° NNW 01:26:52 51° N 01:30:58 10° ENE visible
19 Sep ? 01:05:51 45° NNE 01:05:51 45° NNE 01:09:12 10° ENE visible
19 Sep ? 02:47:55 10° WNW 02:52:13 58° N 02:56:15 10° E visible
20 Sep ? 00:45:09 29° NE 00:45:09 29° NE 00:47:25 10° ENE visible
20 Sep ? 02:26:32 13° WNW 02:30:24 59° NNE 02:34:28 10° E visible
21 Sep ? 00:24:28 18° ENE 00:24:28 18° ENE 00:25:40 10° ENE visible
21 Sep ? 02:05:51 22° WNW 02:08:35 60° NNE 02:12:41 10° E visible
22 Sep ? 00:03:52 10° ENE 00:03:52 10° ENE 00:03:56 10° ENE visible
22 Sep ? 01:45:15 39° NW 01:46:45 62° NNE 01:50:56 10° E visible
23 Sep ? 01:24:42 62° N 01:24:54 63° NNE 01:29:11 10° E visible
24 Sep ? 01:04:14 46° ENE 01:04:14 46° ENE 01:07:26 10° E visible
24 Sep ? 02:45:39 10° W 02:49:50 41° SSW 02:53:44 10° SE visible
25 Sep ? 00:43:52 24° E 00:43:52 24° E 00:45:41 10° E visible
25 Sep ? 02:25:17 20° W 02:28:00 40° SSW 02:31:58 10° SE visible
26 Sep ? 00:23:36 12° E 00:23:36 12° E 00:23:58 10° E visible
26 Sep ? 02:05:01 34° WSW 02:06:10 40° SSW 02:10:11 10° SE visible
